Lid_Strength_Index
1 0 0 1 0 0 -0 0 0 -0 -0 0 -0 0 0 0 -0 0 -0 0 1 1 1 1 1 1 0 1 1 1 1 1 4 2 1 1 2 2 2 2 1 1 2
0 0 0 0 0 0 0 0 -0 0 -0 -0 0 0 0 0 -0 0 1 0 1 1 1 1 1 1 1 1 1 1 2 1 3 4 2 2 2 2 2 2 2 1 2
1 1 1 1 0 1 1 0 0 0 -0 -0 0 0 1 0 0 0 0 1 1 1 1 1 1 1 1 2 1 2 1 1 2 3 4 3 3 2 3 2 2 2 2
1 1 1 1 1 1 0 0 1 0 0 0 0 0 0 0 0 0 1 1 1 1 0 1 1 1 2 1 2 2 2 2 2 3 4 4 3 3 3 4 4 3 3
1 1 1 1 0 1 0 0 0 0 0 0 0 0 0 0 1 1 1 1 1 1 0 1 0 1 3 2 1 1 2 3 3 4 4 4 4 4 4 4 4 3 3
1 1 1 1 1 1 1 1 0 1 0 1 1 1 1 0 6 5 2 1 1 1 1 1 0 1 3 6 4 4 2 2 3 4 4 4 4 3 3 3 4 3 4
1 1 1 1 1 1 1 1 1 1 1 1 1 1 1 0 6 6 5 0 1 1 1 1 1 0 1 1 6 6 6 6 4 2 3 3 3 3 3 4 4 2 2
1 1 1 1 2 1 1 1 1 1 1 2 1 1 1 1 7 7 6 0 0 0 0 1 1 1 1 1 1 2 2 2 2 1 2 2 2 2 3 3 2 0 1
1 1 1 1 1 2 2 1 1 1 1 1 1 2 1 1 8 9 6 0 1 1 1 0 0 1 8 7 2 3 3 3 7 7 7 7 8 7 3 1 2 2 3
1 1 1 1 1 1 1 1 1 0 1 1 1 1 4 1 9 10 6 1 1 2 1 2 8 4 9 7 1 3 3 3 2 2 2 5 4 4 6 -1 0 2 2
1 1 1 0 1 0 0 1 1 1 1 1 1 1 1 1 1 9 8 1 1 1 1 1 3 10 9 8 5 1 1 1 3 1 0 1 0 -0 -0 -1 -1 -1 1
1 1 1 0 1 1 1 1 1 1 2 2 2 2 1 1 5 9 8 5 4 1 2 1 4 11 10 8 4 9 8 4 1 1 1 1 1 1 -0 -1 -2 -1 -0
1 1 1 1 0 0 1 1 2 1 1 2 2 2 2 1 1 8 9 9 7 1 0 5 10 11 10 7 9 9 8 1 1 2 2 1 1 -0 -1 -0 0 1 -0
1 1 1 1 1 1 1 1 1 1 1 2 2 2 2 1 1 0 2 0 7 4 6 3 4 6 8 4 3 4 0 0 1 1 1 0 0 0 1 -0 1 1 2
1 1 1 1 1 1 1 1 1 0 1 1 1 2 2 2 1 3 2 1 1 2 1 0 1 1 1 1 1 0 0 0 1 0 1 1 1 1 1 1 2 2 3
2 1 1 1 1 1 1 1 10 9 9 8 8 4 2 7 9 9 8 9 10 8 1 1 1 1 1 1 1 1 1 1 1 0 0 1 2 2 2 1 1 2 2
1 1 1 2 1 1 1 2 2 3 8 8 9 8 7 7 10 11 11 12 10 8 1 2 1 1 1 1 1 1 1 0 -0 0 0 1 1 1 3 2 2 2 2
1 6 1 1 1 1 1 1 1 2 2 1 7 5 9 9 11 12 12 9 2 4 1 1 1 1 1 1 1 1 1 0 0 0 0 1 0 1 2 2 3 2 3
1 1 1 1 1 1 1 1 1 1 1 1 1 5 8 12 11 11 10 1 1 2 1 1 1 1 1 0 0 0 0 1 1 0 1 1 1 1 1 2 2 8 6
1 5 3 1 1 1 1 1 1 1 1 1 1 1 1 4 2 1 1 1 1 1 1 1 0 0 0 0 0 0 0 1 0 1 1 0 0 1 1 1 2 2 2
1 1 5 1 1 1 1 1 1 1 1 1 1 1 5 1 1 1 1 1 1 1 1 0 0 0 0 0 0 0 0 0 0 0 0 0 0 1 1 1 1 1 1
1 1 1 1 1 1 1 1 1 1 1 1 1 1 10 1 1 1 1 1 0 0 -0 0 0 0 0 0 0 0 0 1 0 0 0 0 0 0 0 1 1 1 1
1 1 1 1 1 4 1 1 1 1 1 1 1 1 1 1 1 1 1 0 0 0 -0 -0 -0 0 -0 -0 -1 -0 0 0 0 -0 0 0 0 1 1 1 2 2 2
1 1 1 2 1 1 1 1 1 4 1 1 1 1 1 1 1 1 0 0 -0 -0 -0 -0 -0 -0 -0 -0 -0 -0 -0 -0 0 0 0 0 1 2 1 2 2 2 2
1 1 1 1 2 1 1 1 1 1 1 1 1 1 1 1 1 1 0 0 0 0 -0 -0 -0 -0 -0 -0 -0 -0 3 12 3 6 1 0 1 1 1 2 2 2 4
1 1 1 1 1 1 1 1 1 1 1 1 1 1 1 1 1 0 0 0 0 0 -0 -0 -0 -0 -1 -0 -1 4 12 13 7 12 1 1 1 1 2 2 2 3 6